Theta_e
302 302 302 302 302 302 301 301 301 300 301 301 301 301 301 302 302 305 306 308 310 310 311 312 314 317 317 316 320 318 319 316 319 322 321 321 321 321 321 322 328 328 330 333 332 334 330 328 332 332 331 331 329 329
301 301 302 302 302 302 302 301 301 300 301 301 301 301 300 301 301 304 306 306 308 310 310 311 311 313 314 315 316 317 317 317 318 320 321 321 323 322 325 325 326 329 327 326 331 328 327 327 327 328 328 329 331 329
301 301 301 302 302 302 302 301 301 301 300 301 301 301 300 301 301 302 304 307 309 308 309 309 309 310 313 314 315 316 317 317 317 316 319 319 322 320 326 326 326 325 324 327 325 326 325 323 323 324 326 328 329 329
301 301 301 301 301 302 302 302 302 301 300 301 301 301 300 300 300 301 303 305 308 309 310 310 310 311 312 314 314 314 316 316 316 315 317 318 319 319 321 320 321 320 324 325 325 323 321 322 322 320 321 325 326 327
302 301 301 301 301 303 303 303 302 301 301 301 301 301 301 300 300 301 302 304 306 309 310 310 309 309 311 313 314 315 315 315 315 316 317 318 316 317 317 316 318 318 322 322 321 320 320 321 319 320 321 325 326 325
302 301 301 302 302 302 302 303 302 303 301 301 300 300 300 300 300 302 305 305 305 306 307 310 310 309 309 311 311 312 314 314 315 316 317 316 315 317 318 318 317 316 316 317 318 318 320 318 316 316 319 326 325 324
302 301 302 302 302 303 302 302 302 302 301 300 300 300 300 300 300 303 307 308 308 306 308 311 312 312 313 312 312 312 313 313 315 315 315 317 317 315 318 319 317 316 317 317 317 319 317 317 318 324 323 325 323 325
300 303 302 301 302 302 302 302 301 302 302 301 301 300 300 300 301 303 306 308 308 308 307 311 314 314 313 313 313 312 313 313 313 316 314 317 315 316 319 318 317 317 317 318 324 322 319 319 322 324 325 325 325 326
300 300 302 302 302 302 302 302 301 302 302 301 300 300 301 303 303 304 305 307 307 307 310 312 313 317 314 313 312 312 314 316 312 317 316 317 318 319 319 318 318 319 325 324 323 325 326 326 326 326 327 326 327 326
299 299 300 302 302 302 302 301 302 302 301 300 300 302 305 305 305 307 307 307 307 308 308 313 312 315 313 315 315 316 314 319 319 318 313 318 319 317 316 315 316 322 322 322 325 324 326 326 326 327 326 326 325 325
299 300 302 301 303 302 302 301 302 302 301 301 304 305 307 306 307 307 310 307 306 310 311 312 312 315 313 317 320 317 319 317 320 318 319 319 319 320 322 322 321 321 320 321 321 321 321 322 324 324 325 325 323 324
298 302 303 303 303 302 302 302 302 302 301 303 305 306 308 307 308 310 311 311 312 313 312 313 313 312 313 311 318 320 322 320 322 317 322 325 324 321 323 321 321 321 321 321 320 321 321 322 323 323 323 322 322 322
301 303 302 302 302 302 302 301 302 301 301 303 306 307 308 309 308 310 311 312 313 313 313 312 314 313 311 311 318 320 322 322 319 324 323 323 322 321 320 321 320 320 321 321 321 321 321 322 322 322 322 322 323 322
302 302 302 302 302 302 302 303 301 301 302 304 305 305 309 310 308 311 312 313 313 312 314 313 315 314 313 316 319 320 318 321 323 323 324 324 321 320 318 318 319 322 322 322 322 322 322 322 323 323 323 322 323 323
302 302 302 303 302 303 301 301 301 302 304 305 302 308 311 310 309 310 312 312 312 312 312 315 315 313 317 319 317 319 322 322 322 323 323 321 319 319 320 317 321 322 318 318 319 322 322 322 323 322 322 321 321 320
302 302 302 303 303 301 301 301 302 303 305 305 307 311 311 313 313 313 315 315 315 315 314 315 318 319 319 319 319 320 321 322 322 321 318 320 320 321 321 321 322 320 319 319 320 322 322 323 323 322 322 322 322 321
302 302 302 302 301 301 302 303 303 305 306 308 310 310 310 310 312 313 313 315 316 316 319 318 320 320 319 322 321 322 323 322 319 319 320 320 320 320 321 322 319 318 319 320 320 320 321 322 322 321 320 321 322 321
302 302 301 301 301 302 304 306 306 307 308 309 309 310 309 310 311 312 316 316 316 316 317 320 320 321 322 322 322 322 321 318 320 320 319 321 321 321 319 318 318 319 319 320 319 319 319 319 319 318 318 319 319 319
301 301 301 301 303 306 306 305 306 308 310 309 310 311 311 311 314 315 316 316 317 317 317 319 319 322 322 321 321 321 320 321 320 318 318 320 321 319 319 319 318 318 319 319 320 319 319 318 318 317 317 318 317 317
301 301 302 305 306 307 307 307 306 307 309 310 311 312 312 313 314 316 315 315 316 317 319 320 319 319 319 319 319 319 320 320 319 319 320 319 319 319 319 319 318 318 318 318 318 319 319 318 318 318 317 317 317 317
301 302 305 305 306 307 308 310 309 309 311 311 311 313 314 315 317 318 317 317 317 317 315 316 314 316 318 319 320 321 320 319 318 319 318 318 318 319 319 319 318 318 318 318 318 318 318 318 318 318 318 318 318 315
303 304 304 305 307 308 310 311 309 309 310 311 313 313 316 317 317 316 317 318 317 316 317 317 317 318 319 318 318 318 318 318 318 317 318 318 318 318 317 314 315 314 315 317 318 317 315 314 317 317 317 316 314 312
304 305 307 307 308 308 308 308 309 310 312 312 313 315 315 315 315 316 316 315 316 316 317 317 318 319 319 319 318 318 318 317 316 316 315 315 312 311 311 310 309 309 309 307 307 308 311 314 314 315 315 313 312 310
307 307 307 306 307 307 309 310 309 312 313 314 315 315 313 313 315 316 316 315 316 316 317 318 317 318 319 318 318 318 318 317 318 316 315 313 311 310 309 308 307 307 307 307 307 307 308 309 313 315 314 312 308 306
307 307 307 308 310 312 312 313 313 313 315 314 314 314 313 312 315 316 315 315 316 317 317 317 317 317 317 318 317 317 317 315 317 315 313 312 310 309 308 308 307 307 307 308 307 307 307 308 310 309 307 306 304 302
307 309 310 313 313 314 315 316 315 315 315 314 314 313 312 314 315 315 314 316 316 317 316 317 317 317 317 317 316 317 316 316 316 315 314 312 310 309 309 309 308 307 307 307 307 307 307 307 306 306 304 303 301 299
313 314 313 312 313 313 313 313 313 315 316 315 314 314 315 316 316 315 316 317 317 316 316 317 317 316 316 316 316 316 317 316 314 315 315 312 309 309 308 308 308 307 307 306 306 306 306 305 304 302 301 300 299 298
312 311 313 313 314 314 314 314 314 315 316 315 315 315 315 316 316 316 316 316 317 316 313 315 316 316 315 315 314 313 313 312 311 310 309 308 308 308 308 308 307 307 307 306 305 304 303 302 302 301 300 299 299 298
312 312 313 315 315 315 315 315 315 314 314 315 315 317 316 315 314 316 316 315 316 317 312 310 310 310 310 311 311 310 309 309 308 308 308 308 308 307 307 306 307 307 306 305 304 303 302 301 301 300 299 299 298 298
312 314 314 315 315 315 315 314 314 314 315 314 315 315 314 315 315 315 315 315 316 315 313 311 309 309 308 308 307 307 306 306 306 306 306 305 304 304 304 305 306 306 305 304 303 302 301 301 300 300 299 299 299 299
313 314 315 315 315 314 314 314 313 313 313 313 312 313 312 311 312 312 312 312 312 311 311 310 309 309 308 308 307 306 304 303 302 302 303 303 303 303 303 305 305 305 304 303 302 301 301 300 300 300 299 300 300 300
314 313 314 316 316 315 315 315 314 313 312 312 312 312 312 312 312 311 311 311 311 310 310 310 309 309 308 308 307 306 305 304 304 304 304 304 304 304 303 303 303 302 302 301 301 301 300 300 300 300 300 300 300 300
314 314 314 314 315 315 315 315 314 314 313 313 313 313 313 313 313 311 311 311 310 310 310 309 309 309 308 307 306 306 305 305 305 305 305 304 304 304 304 303 303 303 302 302 302 301 300 300 300 300 300 300 300 300
Wind_Speed
21 21 20 19 17 16 13 11 13 13 13 12 13 12 11 10 8 8 11 9 14 6 17 17 8 11 10 5 5 3 4 2 2 5 5 5 5 6 4 3 3 4 4 4 3 4 4 3 4 3 2 5 5 6
22 21 20 20 19 17 12 13 14 14 12 12 12 13 12 11 8 10 10 8 13 17 13 14 21 21 23 18 5 2 3 3 3 1 1 1 3 3 3 4 2 4 4 2 6 2 1 3 11 15 13 15 9 9
21 21 22 21 20 20 17 14 15 13 12 12 11 12 13 11 11 9 14 11 11 15 20 24 27 26 24 24 22 8 7 8 6 6 3 1 4 3 4 4 3 4 4 3 2 3 4 14 14 10 8 11 10 9
22 21 22 21 20 19 18 16 14 13 12 11 12 12 13 11 14 10 14 17 11 9 5 10 11 18 16 17 23 26 23 9 12 5 4 3 4 4 2 3 4 4 8 5 5 15 15 12 6 14 14 10 9 8
17 18 18 18 19 18 18 17 15 14 12 12 12 11 11 13 14 12 16 20 17 12 5 14 24 25 25 24 19 15 20 20 13 6 4 5 3 3 2 2 11 13 9 8 12 18 15 16 18 18 18 12 8 5
16 17 17 17 16 17 16 16 15 14 11 12 10 11 11 12 11 7 4 11 19 21 6 4 11 17 12 13 19 24 28 14 13 8 6 5 8 7 4 4 9 14 18 20 25 21 16 20 30 28 20 11 8 4
14 14 13 14 15 15 15 14 13 12 11 9 10 11 13 14 12 13 4 4 9 23 5 5 6 5 4 13 12 11 17 12 11 7 6 7 6 10 4 14 12 17 20 23 22 15 20 27 16 12 11 10 7 6
17 13 11 14 13 13 12 11 10 10 10 8 8 10 13 11 14 21 15 5 8 21 5 4 5 5 5 6 7 9 12 11 12 7 4 5 5 6 6 14 18 16 14 14 9 9 21 23 19 16 10 11 10 6
14 16 13 11 12 12 12 10 9 9 7 6 7 10 7 8 9 14 15 13 15 10 5 5 3 2 3 3 4 7 9 5 7 6 5 7 5 6 10 12 11 7 5 11 15 12 7 7 7 7 10 11 8 7
13 14 17 15 12 13 11 8 9 8 7 6 7 6 5 7 10 5 7 6 11 7 8 5 4 3 5 2 5 6 5 4 5 4 7 4 7 15 12 9 9 7 6 9 10 6 9 6 5 5 9 9 10 9
16 13 12 15 13 14 13 10 10 10 7 6 5 4 4 4 7 5 6 5 6 4 8 7 12 6 6 3 1 2 3 3 4 4 4 4 3 1 3 2 1 2 5 7 6 8 10 11 9 7 5 8 8 8
12 11 9 11 14 14 12 13 10 11 7 9 3 4 2 5 6 4 4 4 5 4 6 5 7 10 5 5 4 2 1 2 3 8 4 3 1 4 4 2 3 6 6 6 5 7 12 9 5 3 5 6 6 5
10 11 10 13 15 12 11 11 12 8 12 8 3 2 3 3 1 4 5 3 3 3 4 4 3 4 5 5 1 0 5 2 8 4 3 2 2 5 5 6 8 10 10 7 5 7 10 5 2 3 5 4 5 6
8 12 13 15 13 12 11 12 10 8 6 3 1 2 4 4 4 6 5 2 2 2 4 4 3 5 4 4 2 3 1 3 3 3 2 3 7 4 8 11 16 8 8 8 11 12 1 4 1 3 4 8 9 9
11 13 13 13 11 11 11 11 9 13 2 2 3 4 6 6 6 7 10 9 9 8 6 6 3 3 3 3 4 2 4 2 1 2 2 6 2 3 6 8 6 8 8 7 5 5 4 6 8 6 7 7 10 11
16 15 15 12 13 12 11 10 11 11 3 4 6 4 3 7 4 4 5 6 3 5 6 4 2 3 3 1 3 1 3 2 3 2 4 3 1 3 4 5 5 6 7 6 7 6 4 8 13 12 8 12 11 11
17 14 17 15 13 11 13 13 12 4 4 4 4 7 9 9 9 11 12 2 2 3 2 2 4 2 2 2 2 3 3 3 6 6 7 6 5 4 3 5 4 6 7 8 10 11 11 10 7 8 4 7 5 5
13 16 18 18 15 16 16 4 2 3 5 5 4 10 7 11 11 11 3 4 4 4 3 0 2 1 2 2 2 3 4 8 11 9 8 8 7 11 12 9 11 13 14 14 15 16 16 16 17 19 18 17 19 18
16 19 17 20 18 6 5 5 4 4 5 6 8 9 8 10 6 8 6 2 3 2 2 2 3 3 3 4 3 5 5 7 9 9 11 11 12 14 15 15 13 12 12 11 8 10 13 13 16 16 15 16 18 17
18 18 24 16 7 2 3 3 5 5 4 3 7 5 9 8 7 3 6 6 4 3 6 4 3 3 4 8 7 7 11 11 10 10 10 12 13 11 11 12 15 14 14 14 14 11 9 11 11 8 6 6 8 8
18 21 15 6 2 3 3 2 3 4 6 4 6 8 5 6 6 7 10 15 10 6 5 10 13 10 3 4 8 9 9 9 10 10 14 13 15 12 13 13 10 11 12 11 11 11 11 10 8 6 7 6 7 10
19 12 5 5 3 2 3 2 3 5 3 6 7 6 2 4 9 9 12 10 5 8 1 2 2 5 8 10 11 12 15 15 18 16 11 13 15 11 9 12 13 11 11 9 6 5 5 5 5 4 4 7 8 9
9 6 2 4 3 2 3 4 2 3 2 5 5 4 5 6 7 7 6 6 7 11 6 8 10 11 11 12 13 15 14 18 19 17 19 19 16 15 12 11 11 10 10 10 8 6 4 2 3 4 7 8 8 7
1 2 2 1 3 3 2 3 4 4 2 2 2 3 4 6 7 6 4 4 13 11 12 14 14 15 15 15 16 14 13 12 10 12 12 13 13 11 11 12 13 14 14 11 9 9 9 8 7 5 6 6 5 5
3 5 4 5 4 3 2 3 2 1 4 4 3 4 3 4 3 3 2 6 11 13 12 10 14 16 18 18 13 12 12 11 13 12 10 9 9 9 8 9 10 12 13 10 10 9 10 10 9 8 6 5 4 5
1 3 1 4 2 1 3 3 4 5 3 3 4 3 3 3 4 3 2 8 13 11 12 13 13 14 14 14 14 11 10 7 4 5 8 6 4 5 6 6 7 8 10 10 10 8 7 6 5 4 4 5 5 5
5 5 6 8 3 2 5 5 5 5 4 3 2 3 3 4 4 3 6 12 11 13 12 11 10 10 14 8 8 7 7 9 4 2 6 5 2 1 2 4 5 5 6 7 8 7 6 5 4 4 3 2 3 4
5 8 6 9 7 7 3 3 3 3 3 3 2 3 3 2 1 5 7 11 9 10 12 14 13 14 10 7 7 5 5 4 4 5 3 1 0 1 2 2 3 3 4 5 6 5 4 5 4 5 3 1 2 5
6 9 5 9 5 5 5 4 3 3 2 2 2 2 4 10 16 5 7 9 7 9 10 12 13 10 8 4 2 2 1 1 1 1 3 2 2 4 3 3 2 1 1 4 5 4 5 7 8 7 5 4 5 6
10 11 5 7 5 6 10 10 14 19 23 21 17 15 10 6 1 4 10 15 13 10 9 8 9 10 10 9 8 7 5 4 3 3 1 2 3 4 3 2 2 2 1 2 3 4 6 8 9 7 6 6 7 8
6 8 7 8 7 13 15 17 17 18 16 13 14 15 13 12 14 14 13 12 10 8 7 6 6 7 8 9 10 8 7 7 8 8 8 8 8 7 5 3 2 1 1 3 4 5 6 7 7 6 6 7 8 9
7 6 4 4 7 12 12 11 10 9 7 8 9 13 9 5 4 4 5 4 2 2 3 4 4 4 6 7 9 9 10 11 11 11 11 11 12 11 9 7 4 3 3 4 6 6 7 6 6 6 7 8 10 12
5 6 6 3 4 4 6 3 4 3 2 1 1 2 2 1 2 1 3 6 2 2 1 1 2 3 2 2 5 8 9 9 9 10 10 9 10 10 10 9 8 8 8 7 7 7 6 7 6 7 9 10 11 12
Wind_Direction
277 277 274 272 275 277 283 279 290 298 286 282 296 304 309 305 239 236 243 228 241 251 263 268 262 258 266 268 264 329 290 189 233 223 236 207 229 199 209 220 202 217 201 210 186 227 243 151 140 256 351 320 291 321
275 275 276 271 269 274 272 285 287 292 284 271 284 298 304 302 278 226 243 239 251 248 260 261 253 250 243 245 275 240 292 296 302 267 205 160 202 180 203 219 179 223 221 234 220 262 94 247 271 277 281 281 292 305
273 270 270 272 268 265 263 270 274 284 290 267 272 285 296 292 295 234 232 229 256 268 276 262 254 256 257 248 247 240 244 238 253 275 306 315 254 178 200 219 232 224 187 239 237 201 282 299 306 314 292 262 279 289
272 272 270 267 265 259 257 260 264 276 285 273 268 279 300 289 296 255 239 221 251 271 275 278 277 258 254 247 235 229 235 237 261 263 252 234 239 201 239 303 255 275 163 228 253 280 307 282 290 331 339 301 270 291
272 270 270 262 260 259 253 253 259 268 273 271 266 268 286 287 298 253 248 228 221 232 289 292 292 270 246 234 236 224 219 225 228 243 225 230 228 202 208 259 255 224 232 239 259 270 263 281 310 311 309 301 263 286
273 268 263 261 258 255 255 248 255 258 256 271 265 268 280 284 278 249 273 247 226 237 277 286 296 281 263 236 219 231 228 212 203 208 227 228 225 213 236 251 251 241 244 252 262 270 266 280 299 304 289 258 249 256
278 269 264 259 255 247 249 248 253 251 244 254 263 266 278 278 229 218 213 186 211 212 238 271 266 262 237 213 195 179 187 195 197 215 227 230 206 190 239 251 258 261 268 283 275 269 280 277 278 313 311 244 226 208
264 269 265 253 250 240 243 242 248 239 240 254 258 272 278 260 236 229 209 227 195 185 223 259 268 285 187 179 163 160 160 174 191 213 208 211 158 201 251 260 266 276 278 282 301 276 261 276 280 291 252 214 201 193
255 253 256 260 240 238 232 230 241 224 235 251 267 272 241 218 219 230 231 251 208 202 243 219 252 302 292 189 150 162 164 171 168 209 203 177 183 221 240 261 275 284 319 307 310 304 285 280 277 269 215 209 207 207
250 261 249 244 242 223 223 228 216 217 228 259 247 225 216 216 211 200 178 190 205 212 237 253 227 254 310 331 185 157 183 152 179 185 145 215 242 251 255 264 277 294 318 328 330 324 342 360 332 261 227 221 227 223
243 260 242 231 229 209 206 219 213 218 203 221 212 224 224 208 186 212 211 160 205 228 223 233 222 236 265 259 259 194 149 155 199 152 213 193 240 219 334 306 305 315 323 329 334 342 334 323 303 282 246 230 220 221
248 242 241 212 200 192 200 203 221 197 202 194 268 267 203 200 216 225 212 163 214 224 205 207 213 210 242 228 263 74 121 197 198 149 205 212 80 341 4 41 6 349 340 330 315 336 344 320 302 238 208 226 228 239
240 216 193 181 180 189 194 201 209 206 214 213 222 226 212 186 219 229 206 189 220 213 204 211 204 189 198 205 109 150 222 156 137 197 194 89 45 44 49 53 26 1 343 352 351 333 327 323 173 160 161 173 174 176
179 178 176 176 181 185 198 198 193 194 183 238 190 265 219 183 227 222 241 238 235 200 283 250 237 204 174 177 124 216 178 185 196 197 100 141 154 66 46 11 351 14 27 23 19 6 44 194 220 105 154 153 132 124
176 167 169 168 177 174 176 186 189 181 173 255 222 230 220 250 259 267 278 273 262 265 250 299 230 220 165 144 221 188 190 156 177 96 107 136 111 21 11 349 14 19 10 15 7 16 97 103 95 90 100 144 151 119
162 164 171 172 168 175 175 168 162 172 260 239 239 261 289 270 282 284 281 280 309 253 240 220 241 209 165 230 194 145 154 81 71 63 98 120 116 49 11 12 57 18 15 29 30 34 65 133 117 98 85 100 109 114
162 168 169 166 161 156 150 144 168 212 237 241 245 268 280 285 274 297 308 263 175 194 239 216 194 83 135 180 98 22 52 87 99 91 78 52 25 23 64 101 81 46 45 57 63 67 73 109 144 156 212 104 120 166
167 161 156 155 153 147 153 158 239 245 256 257 268 286 300 274 278 297 337 10 165 208 216 77 79 140 61 86 89 94 95 112 98 80 67 63 66 91 89 77 91 81 68 76 79 80 90 99 104 109 117 110 108 99
147 145 143 146 146 149 177 205 233 263 253 266 274 292 298 307 318 311 339 44 117 103 86 61 44 41 57 43 21 90 125 117 107 95 80 78 87 99 93 94 87 74 67 77 101 96 91 95 101 92 96 100 95 92
139 142 151 151 160 186 211 211 218 255 267 287 298 315 298 284 308 22 43 85 95 64 45 39 44 34 73 45 39 100 107 118 117 105 85 88 96 108 103 90 82 59 64 75 80 90 88 85 89 110 85 98 52 81
152 161 168 184 296 286 251 235 237 261 298 306 328 334 323 352 19 54 61 76 59 39 49 90 99 101 116 86 89 102 98 102 113 99 102 88 81 89 106 118 97 91 83 75 79 83 81 83 82 80 83 91 104 109
149 151 174 204 292 281 263 281 294 304 284 311 326 327 2 54 50 43 67 54 48 69 17 14 89 110 106 101 98 107 111 105 97 83 90 110 109 88 74 91 87 77 73 75 85 77 70 97 110 128 130 122 124 115
149 168 247 237 275 302 297 318 335 334 309 345 349 4 21 29 25 50 62 41 36 18 95 104 99 99 112 116 114 121 115 119 109 109 105 91 93 90 86 73 64 58 52 49 46 39 43 71 128 152 145 134 126 112
275 243 306 273 242 265 206 224 209 253 223 334 360 64 23 2 23 61 60 37 24 43 97 110 109 104 104 116 119 117 125 142 112 110 111 113 98 85 70 65 57 52 47 43 52 56 60 69 85 120 122 116 97 62
211 201 205 234 243 255 244 171 226 222 56 30 49 66 3 4 60 59 40 8 28 45 94 115 115 102 102 102 95 93 119 121 127 124 118 109 84 72 71 57 49 44 40 45 64 66 69 76 88 98 97 75 37 26
305 127 127 3 90 335 16 50 39 29 37 67 55 36 21 54 49 44 32 53 61 68 95 120 121 100 96 120 142 143 149 141 150 155 149 128 95 65 55 51 41 38 41 55 62 55 64 71 75 56 25 14 23 52
34 357 360 14 357 35 74 53 41 49 58 43 37 31 28 65 52 15 57 58 68 74 86 111 115 92 65 79 110 132 149 161 197 216 171 169 149 51 53 50 41 40 45 49 51 50 53 53 35 19 6 21 28 35
37 25 17 1 41 40 66 47 43 36 33 23 58 48 62 55 95 113 86 44 52 87 94 100 93 93 87 76 32 75 109 144 163 157 133 139 23 9 353 360 9 28 40 38 50 57 58 40 30 16 359 317 327 340
30 9 50 53 56 54 36 23 53 44 41 43 81 85 88 110 135 109 4 356 113 116 108 105 90 71 73 104 117 36 5 276 235 258 290 334 337 325 324 318 312 330 26 31 37 39 29 21 13 10 7 354 335 331
26 53 59 45 33 30 24 68 79 90 91 95 103 105 97 80 104 32 86 93 107 115 97 77 65 58 60 54 41 25 11 343 293 266 18 20 360 344 347 342 284 242 237 344 343 348 354 356 354 350 347 341 335 331
75 66 53 58 57 51 81 94 94 98 95 97 105 104 103 87 85 85 82 73 73 73 65 61 61 55 43 36 36 35 41 54 65 69 68 61 49 37 35 43 72 160 300 315 315 320 330 338 344 346 346 346 342 338
45 39 45 63 55 63 89 86 85 90 90 88 88 103 103 87 72 68 54 33 26 41 65 77 59 41 31 36 42 60 73 79 76 68 59 52 46 47 50 51 46 24 350 327 321 327 336 347 348 344 341 338 336 332
39 48 56 42 35 60 57 75 64 80 69 122 119 88 82 74 99 170 8 5 352 172 133 73 30 353 347 54 65 75 75 70 63 55 46 42 42 42 38 33 29 17 6 349 336 325 319 320 330 334 336 339 341 343